Dewpoint
23 23 21 21 21 23 26 23 21 15 12 12 12 13 13 13 14 12 12 13 13 12 12 11 13 13 14 16 19 19 18 43 57 56 57 57 58 58 59 60 61 60 61 62 62 61 63 64 63 64 63 64 64 63 64 64 64 65 65 64 64 65 66 65 65 65 65 64 64 65 64 64 65 65 65 65 65 65 65 65 64 65 66 66 66 66
25 23 24 25 25 25 27 30 30 24 22 13 15 15 15 15 15 14 15 15 13 18 12 21 17 16 17 21 21 24 21 22 46 54 56 57 57 58 58 60 61 61 61 62 62 62 63 62 63 63 63 63 63 63 63 63 64 64 65 64 64 65 67 67 65 65 65 65 64 63 64 64 64 65 64 64 65 65 65 66 66 66 66 66 66 65
24 23 25 27 26 33 33 30 27 25 23 19 17 17 16 16 15 15 16 15 15 15 14 18 15 15 16 17 18 24 23 24 36 52 55 56 57 57 58 59 60 61 61 61 62 63 62 62 63 63 63 63 63 63 62 63 63 64 65 65 64 65 66 66 66 66 65 66 65 65 65 64 64 65 66 64 65 65 65 66 66 66 66 66 65 65
24 22 25 23 29 29 28 29 26 27 26 21 19 18 16 15 14 13 18 21 19 17 15 16 14 16 21 24 26 28 24 26 29 44 54 57 57 57 58 58 59 59 60 61 61 62 62 62 62 62 62 63 63 63 63 63 63 63 64 65 64 65 65 66 66 65 66 65 66 66 65 66 65 65 65 66 66 66 65 65 65 66 66 66 65 65
23 19 23 25 26 24 26 28 26 22 19 26 23 16 14 14 14 13 16 21 24 22 27 18 20 19 24 22 21 26 29 26 23 20 37 55 57 57 59 59 60 59 59 60 61 61 61 62 62 62 62 62 63 63 63 63 63 63 64 65 64 64 65 66 65 65 66 66 65 66 66 65 65 65 65 64 64 65 65 64 65 65 65 65 65 65
25 25 24 22 22 21 24 23 24 23 18 21 28 20 16 16 15 15 20 16 16 14 24 20 15 14 25 22 19 21 35 39 30 26 25 40 54 57 58 58 59 59 60 60 60 60 61 62 62 62 62 62 62 63 63 64 64 64 65 65 64 64 64 64 65 65 65 65 64 64 63 63 63 63 63 63 63 63 64 64 65 65 65 65 65 65
24 27 24 22 23 21 19 19 24 23 18 19 16 22 18 16 17 17 17 16 11 11 23 27 16 14 22 18 20 28 36 38 38 35 32 37 48 56 58 57 58 58 59 60 60 60 61 62 62 61 61 62 62 63 64 64 64 64 65 65 63 63 64 65 65 65 65 64 64 64 63 63 63 62 63 64 64 64 64 64 64 64 65 65 65 65
22 22 22 24 25 21 20 19 23 20 19 14 24 22 19 17 17 20 17 15 12 24 26 22 15 15 15 21 27 36 39 38 36 37 41 43 48 53 56 57 58 58 58 59 59 60 61 61 61 61 61 62 62 63 64 64 64 64 65 64 63 64 64 65 64 65 64 63 64 64 64 64 63 63 63 64 64 64 64 64 64 64 64 65 65 65
30 25 25 23 24 19 19 21 25 20 17 15 24 19 17 16 18 18 16 17 19 18 14 19 18 17 17 20 26 37 30 35 36 44 44 44 50 54 55 55 56 58 59 59 59 60 61 61 61 61 61 62 63 63 63 63 64 64 65 64 63 63 64 64 64 64 64 64 64 64 63 63 63 64 63 63 63 63 63 63 63 64 64 64 65 64
19 23 22 21 21 20 20 18 21 19 18 19 20 20 19 17 17 16 17 15 21 18 14 19 21 14 12 22 23 37 34 37 41 45 46 46 47 51 54 55 57 58 59 60 60 60 61 61 61 61 62 62 62 63 64 63 64 64 64 63 62 63 64 64 64 65 64 64 64 64 64 63 63 63 62 63 63 63 63 63 63 64 64 64 64 64
21 32 23 20 20 21 20 18 20 18 17 20 18 16 17 18 22 22 23 20 20 15 15 22 23 15 11 16 25 30 41 44 45 46 48 49 49 50 53 54 55 57 58 59 59 60 61 61 61 61 61 62 62 63 63 63 63 64 64 63 62 63 64 64 64 64 64 64 64 63 64 64 63 64 64 62 61 61 63 62 63 63 63 63 64 64
20 18 16 16 25 15 18 15 17 18 16 16 15 13 15 18 19 19 20 21 16 11 18 18 19 16 12 17 26 37 42 46 47 47 48 48 49 50 52 54 56 57 58 58 58 59 59 60 60 61 61 61 62 62 62 62 63 63 63 63 63 63 63 64 64 64 63 63 63 64 64 63 64 64 63 64 63 63 63 62 62 63 63 63 63 64
23 20 18 18 33 15 14 12 13 15 15 14 15 14 13 13 15 13 14 13 12 11 19 18 15 14 14 18 35 40 45 46 49 49 49 49 49 51 51 54 56 57 58 57 58 58 59 59 59 60 60 61 61 62 62 62 63 63 63 63 62 62 63 63 63 63 62 62 63 63 63 64 64 64 64 63 64 63 63 63 61 61 61 61 62 62
22 23 20 19 17 22 14 14 15 13 14 14 14 17 13 10 10 8 10 15 13 18 18 18 20 11 19 23 41 45 47 49 50 51 52 51 51 52 53 55 56 57 57 58 58 58 58 58 58 59 59 60 61 61 62 62 62 62 62 62 62 62 63 63 62 61 61 62 63 63 63 63 64 64 64 64 63 63 62 62 63 63 62 62 63 63
18 16 18 18 19 20 15 15 15 17 15 12 14 12 15 14 10 11 8 10 10 12 18 20 16 14 16 33 43 45 49 50 48 51 53 54 53 55 55 56 56 57 57 57 56 56 57 57 58 59 59 60 60 61 61 61 61 61 61 62 61 61 62 62 61 60 60 61 62 62 63 63 64 63 63 63 63 63 62 62 63 62 62 62 62 62
16 18 18 20 15 17 16 16 16 14 14 14 15 13 15 18 21 11 20 15 13 13 17 20 17 26 26 39 43 49 49 49 49 50 52 53 53 54 55 57 57 57 57 56 56 57 58 58 59 59 60 60 60 61 61 61 61 61 61 61 61 61 61 62 60 60 60 60 61 62 63 63 63 63 63 62 62 63 63 62 62 61 61 62 61 61
16 17 20 20 19 16 15 18 16 14 17 18 12 13 13 20 19 22 22 24 24 17 12 24 28 30 36 35 43 47 47 47 49 49 51 52 54 55 54 55 56 57 56 55 56 57 58 58 59 60 60 59 60 60 60 60 61 61 60 60 60 61 61 61 61 61 60 61 61 61 62 62 62 62 63 62 62 62 63 62 62 61 61 61 62 61
18 19 23 20 17 19 16 16 14 14 16 13 14 14 19 19 23 20 13 18 14 12 14 27 26 29 27 24 42 46 46 46 48 49 51 52 52 53 53 54 55 55 56 57 56 56 58 59 59 60 60 60 60 60 60 60 60 60 60 60 60 61 61 61 60 60 60 60 61 61 62 61 61 62 62 62 61 62 61 61 61 61 60 61 62 61
21 18 20 20 18 18 21 16 14 14 17 13 14 17 15 15 14 20 18 13 12 12 13 24 28 30 31 32 39 43 44 45 47 48 49 50 51 53 54 54 55 56 56 56 56 56 58 59 59 59 59 60 60 60 60 60 60 60 60 60 61 61 61 60 60 60 60 60 60 60 61 60 60 61 61 61 61 61 61 60 60 60 61 61 61 60
28 21 23 24 21 23 18 20 19 18 16 18 17 14 20 20 25 15 16 21 17 10 17 19 25 16 31 36 41 42 45 46 47 48 48 50 51 52 52 54 55 55 56 56 56 57 58 59 60 60 60 60 59 59 59 59 60 60 61 60 60 61 60 59 59 60 60 59 59 60 60 59 58 59 59 60 60 60 59 59 59 60 60 61 60 60
25 29 19 22 24 22 16 24 23 23 19 14 15 18 16 27 23 22 24 14 12 16 16 16 14 24 36 40 42 43 45 46 48 48 49 50 51 52 53 53 54 55 55 56 57 58 58 59 60 60 60 60 60 59 59 60 60 60 60 59 59 59 60 60 59 59 59 59 58 59 59 59 59 59 59 59 59 59 60 60 59 59 60 59 59 59
26 24 22 28 21 21 22 24 25 25 25 20 18 16 15 21 19 13 14 22 22 18 17 15 12 26 35 42 46 46 46 47 48 49 47 46 46 46 47 47 48 51 52 55 57 58 58 59 59 59 60 59 58 59 60 59 60 60 60 59 59 59 59 59 58 59 58 58 59 59 59 59 59 58 58 59 59 59 58 59 59 60 59 59 59 58
33 32 28 24 24 24 24 25 27 31 30 32 29 24 25 28 25 16 11 19 24 22 22 24 19 21 42 46 45 47 47 47 47 46 45 44 44 45 45 46 47 47 49 50 51 55 57 58 58 58 58 58 59 59 60 59 59 59 60 60 60 59 59 59 58 58 57 58 59 59 58 58 58 57 58 58 58 59 58 59 59 58 59 58 58 58
45 33 28 27 27 26 24 25 29 30 30 32 35 36 32 26 26 23 19 26 23 28 22 21 18 25 42 47 47 46 45 44 44 44 44 43 42 43 43 44 45 45 47 48 49 50 52 56 58 58 58 58 58 58 59 59 59 59 60 59 59 59 60 59 59 58 57 57 58 58 58 57 57 57 58 58 58 59 59 58 58 57 58 57 57 55
32 36 30 27 25 25 23 24 24 25 32 33 34 35 35 35 33 31 30 30 20 28 24 18 13 24 43 47 47 45 43 42 41 41 42 42 43 43 43 43 44 45 46 46 47 49 50 50 51 54 57 57 57 58 57 57 59 59 59 59 59 59 60 59 58 57 57 57 58 58 58 58 57 57 58 58 58 59 59 58 57 57 56 57 56 55
32 34 32 24 22 21 19 19 21 24 31 31 34 33 34 34 32 31 21 23 17 26 25 22 20 34 44 46 45 43 42 41 42 41 41 41 41 42 43 43 43 44 44 45 46 46 48 48 49 51 52 54 56 56 56 57 57 58 59 59 60 60 60 59 58 57 57 58 58 58 58 58 58 58 58 58 58 58 58 57 57 56 56 55 55 55
34 36 36 32 28 25 24 26 28 31 33 31 31 33 34 35 35 32 29 23 18 25 26 28 32 40 41 43 43 43 42 40 40 40 40 40 41 42 42 42 43 43 43 44 45 46 46 47 47 49 51 52 55 56 55 56 58 58 58 58 59 58 58 59 59 59 57 58 57 57 58 58 57 57 57 57 57 57 56 56 56 55 54 54 54 54
38 32 35 36 35 34 35 32 34 33 31 31 32 33 34 36 37 31 24 21 32 26 19 35 38 40 41 42 41 41 40 39 39 39 39 40 40 41 42 43 42 42 43 44 44 44 45 46 46 47 47 49 52 54 55 55 56 58 58 58 57 57 57 57 57 56 57 57 57 57 58 59 59 58 57 57 55 55 55 54 54 54 54 53 54 53
38 30 33 36 34 35 36 34 33 32 31 30 31 34 35 36 39 37 35 34 33 23 21 35 39 39 41 41 41 39 38 38 37 37 38 40 40 40 41 41 41 42 42 43 43 44 44 44 44 44 45 47 48 49 49 49 49 51 54 56 57 57 57 58 57 56 56 55 55 56 56 56 57 57 57 56 56 55 55 54 54 53 53 54 54 55
36 33 31 36 34 34 35 34 35 34 32 30 32 33 34 36 37 37 37 37 34 36 36 40 39 38 39 39 37 37 37 36 36 37 38 38 39 39 39 39 40 41 42 42 42 43 43 43 43 44 44 45 46 47 48 48 47 48 50 51 53 54 56 58 57 56 56 56 55 55 55 56 56 57 57 57 57 57 56 56 56 56 55 54 53 53
35 31 37 38 35 34 36 35 34 32 32 30 32 33 34 34 36 36 37 38 40 40 40 39 38 36 36 36 35 36 36 36 36 36 37 38 38 38 38 39 39 41 41 42 42 43 43 43 42 42 42 43 45 46 46 47 47 47 47 48 49 49 51 52 52 52 52 53 54 55 56 56 56 55 55 56 56 56 55 55 56 56 56 56 56 55
41 33 36 36 30 31 36 35 35 34 30 31 32 33 33 33 34 35 34 37 36 37 38 38 36 34 36 35 36 36 36 35 35 35 36 37 38 38 38 39 39 40 41 41 42 42 42 42 42 41 40 41 43 44 45 45 46 46 46 46 47 48 48 47 46 46 47 48 49 50 50 50 48 48 49 49 49 49 48 49 49 51 52 54 55 56
40 37 31 31 29 29 34 35 34 35 33 29 29 32 33 34 35 36 36 37 38 39 38 35 36 35 34 36 36 36 35 35 36 36 36 37 37 37 38 38 39 40 41 41 41 41 41 42 42 42 40 39 40 42 44 45 44 44 45 45 45 46 45 45 44 43 45 47 47 46 47 46 45 45 46 45 45 46 46 46 46 47 48 49 51 52
37 37 33 37 28 30 33 34 35 31 26 26 34 36 35 34 34 34 34 36 37 39 37 37 35 34 35 36 35 35 36 36 37 38 39 38 37 38 39 39 40 40 41 41 41 40 41 40 41 41 41 39 38 39 41 42 43 45 45 46 45 44 44 44 43 43 43 45 45 45 44 44 43 44 44 45 44 44 44 44 45 47 46 46 47 48
36 37 33 36 30 29 33 33 28 24 26 33 37 36 36 36 34 35 36 36 36 36 36 34 34 35 35 36 36 35 35 36 36 36 37 38 38 38 38 39 40 41 41 42 42 42 42 41 41 40 41 41 41 39 39 39 40 44 45 44 42 41 42 41 41 41 42 43 44 44 43 43 42 40 40 40 41 41 40 43 42 42 43 43 44 45
32 31 32 31 31 31 30 27 22 24 33 34 36 35 35 38 35 35 35 36 36 36 36 34 34 34 34 35 35 35 34 35 35 36 37 37 38 38 38 38 39 41 40 41 41 41 42 42 42 42 43 43 41 41 40 39 38 39 42 42 42 41 40 39 39 40 41 41 41 42 41 40 40 40 40 40 40 40 40 41 41 42 42 43 44 44
35 35 32 28 32 26 28 27 29 32 32 30 30 32 33 31 32 32 30 34 36 37 35 33 33 33 33 34 35 37 37 35 33 34 37 38 39 38 39 38 37 37 39 40 41 40 41 42 42 43 43 43 43 43 42 42 41 40 39 39 38 37 38 38 39 39 40 40 40 41 41 41 41 41 40 40 40 40 42 41 42 41 41 42 41 42
35 31 33 29 28 28 27 27 27 26 24 27 32 35 36 35 35 36 35 32 36 36 35 33 33 33 33 35 36 36 38 34 31 32 36 38 40 39 38 38 37 37 37 38 38 38 39 40 41 42 41 41 42 42 42 42 43 42 42 41 41 39 38 37 38 38 39 39 40 42 40 41 41 40 40 43 42 41 42 44 42 42 42 39 39 42
32 33 35 29 28 27 25 24 23 23 25 30 31 33 34 35 35 36 34 30 35 36 35 33 34 34 34 35 35 37 37 31 30 32 36 38 39 40 39 40 38 36 35 36 36 36 37 37 37 37 37 37 38 38 38 38 38 37 38 38 39 39 39 40 40 40 39 39 39 39 39 39 40 40 39 41 42 44 43 41 41 42 42 41 40 40
29 27 29 27 26 25 25 24 24 26 26 30 32 32 33 36 36 34 28 27 32 35 36 36 35 35 36 37 38 37 34 29 29 32 37 38 40 40 40 39 36 35 37 35 35 36 36 36 35 35 35 35 36 37 36 36 36 37 36 37 37 37 37 37 38 38 39 40 40 39 38 38 39 39 39 39 40 41 42 42 44 44 43 43 41 42
25 27 26 24 23 25 25 24 25 26 30 32 32 33 34 35 35 28 24 29 34 35 36 37 36 37 38 37 38 32 33 35 34 35 37 39 38 36 35 35 35 34 33 34 35 36 34 34 35 34 35 35 35 36 36 36 36 36 37 37 37 37 37 38 37 37 37 37 36 37 37 37 38 38 38 38 38 38 39 41 42 43 44 43 43 43
25 24 25 26 24 23 24 23 24 27 31 33 33 33 34 34 27 26 33 37 36 37 37 37 35 36 36 36 36 35 35 36 37 38 37 37 38 37 34 33 34 34 35 35 36 36 35 35 35 35 36 35 35 35 36 36 36 36 36 37 37 37 38 37 37 37 36 36 36 36 37 37 38 39 39 38 38 38 38 38 38 39 40 40 43 43
24 23 23 24 25 24 24 22 22 21 31 35 33 32 33 30 30 35 37 38 39 38 37 36 36 36 37 36 37 37 37 36 35 36 35 35 35 35 36 36 36 34 34 34 34 34 35 35 35 35 35 35 36 36 36 36 36 36 36 36 37 38 37 37 37 36 36 36 36 37 37 38 39 39 38 39 39 38 38 38 38 38 39 39 39 39
28 23 23 24 26 23 23 23 24 29 32 35 32 29 31 31 32 34 36 35 38 39 37 36 37 38 37 36 36 36 35 34 34 35 34 32 33 33 33 34 35 35 34 33 33 34 35 34 35 36 36 36 36 36 36 35 35 36 35 36 37 38 38 37 36 36 36 36 36 37 36 36 37 38 38 38 37 38 38 40 40 38 38 38 37 36
29 27 24 25 28 27 26 28 31 35 36 36 34 34 33 34 34 35 36 37 36 37 39 37 36 37 37 36 35 34 32 32 32 32 32 32 32 32 32 33 34 34 34 34 33 34 34 34 35 35 35 36 36 35 35 35 35 35 35 37 37 35 36 36 36 36 36 36 36 37 36 37 37 37 36 37 36 36 37 36 37 37 38 39 37 37
29 30 31 29 27 29 29 30 30 29 30 33 33 34 34 35 35 35 35 35 38 38 39 37 37 37 37 37 36 36 34 32 31 31 31 31 31 31 33 32 33 34 34 34 34 34 34 35 35 35 35 35 35 36 36 36 35 35 36 36 37 35 36 36 36 36 36 35 35 35 34 36 36 36 37 37 36 36 35 36 35 35 36 37 37 37
28 29 29 26 27 26 25 28 28 29 30 32 32 34 35 36 37 37 36 36 38 38 38 38 38 38 37 38 38 37 36 33 32 32 32 31 31 32 32 33 34 35 34 34 35 35 35 34 34 34 35 35 36 35 35 36 36 36 37 36 36 36 36 36 36 36 36 36 34 35 34 34 34 35 36 36 36 35 35 34 35 36 35 35 35 36
24 29 27 27 28 26 26 28 29 30 31 32 32 33 34 35 36 36 37 37 37 38 39 38 38 38 40 38 38 38 37 37 35 34 32 31 30 30 30 33 33 34 35 36 36 36 35 35 34 35 35 35 36 36 35 35 35 35 36 36 36 36 36 37 36 36 35 35 35 34 34 34 34 34 35 35 35 34 34 35 35 35 35 35 35 34
26 30 24 27 26 26 27 28 29 30 30 30 32 33 33 34 34 35 36 36 36 36 37 39 40 40 40 38 39 38 37 36 36 34 31 29 30 31 32 33 34 35 35 34 35 36 36 35 35 36 36 36 36 36 36 36 36 34 37 36 36 37 36 37 37 37 37 36 35 35 35 35 35 35 35 35 34 34 35 35 35 35 35 37 36 36
28 25 27 26 23 23 25 27 29 25 27 29 31 32 33 33 34 33 34 34 34 35 35 35 36 38 39 39 39 37 36 34 33 33 30 30 30 32 34 34 35 35 35 36 36 36 36 37 37 37 36 36 37 36 36 36 36 36 34 35 35 36 36 36 36 37 37 36 36 36 35 35 35 35 35 34 34 34 35 33 34 34 35 35 35 35
27 29 27 22 21 21 26 28 30 31 30 30 31 32 33 33 33 32 32 32 32 33 33 33 33 33 33 34 34 35 34 34 32 31 30 29 30 33 34 35 34 35 35 35 35 35 36 37 37 37 36 36 37 36 36 36 36 36 36 36 36 36 35 35 34 35 35 36 35 36 36 34 34 33 33 34 34 35 33 34 35 33 34 34 35 35